Main page
METAR-TAF:

METAR-TAF

Airports :

Oil platform

Ula, Norway

latitude: 59-06-39N, longitude: 2-50-45E, elevation: 0 m

Current weather observation

The report was made 15 minutes ago, at 09:20 UTC
Wind 15 kt from the South/Southeast
Temperature 9°C
Humidity 93%
Pressure 992 hPa
Visibility: 6000 m
light rain

METAR: ENLA 090920Z AUTO 16015KT 6000NDV -RA BKN005/// 09/08 Q0992 RERA W///S4

Time: 11:35 (09:35 UTC)


TAF: missing

Weather observations and forecasts of more than 4000 airports (METAR and TAF reports).

The available stations are represented by yellow and red dots on the map.

Hover mouse over dot to see the name of the station.

Then click to see weather observations and forecasts.

To change the map : click on the green buttons with a black cross to zoom in, on the green button with a dash to zoom out, or on the green arrows for adjacent maps.


METAR-TAF: